TimeMDT,TemperatureF,Dew PointF,Humidity,Sea Level PressureIn,VisibilityMPH,Wind Direction,Wind SpeedMPH,Gust SpeedMPH,PrecipitationIn,Events,Conditions,WindDirDegrees,DateUTC
12:56 AM,43.0,27.0,53,29.91,-9999.0,NW,19.6,-,N/A,,Unknown,320,2012-10-09 06:56:00
1:56 AM,39.9,26.1,58,29.96,-9999.0,NW,25.3,31.1,N/A,,Unknown,320,2012-10-09 07:56:00
2:56 AM,39.9,21.9,49,29.97,-9999.0,NW,18.4,26.5,N/A,,Unknown,310,2012-10-09 08:56:00
3:56 AM,39.0,25.0,57,29.99,-9999.0,WNW,17.3,-,N/A,,Unknown,290,2012-10-09 09:56:00
4:56 AM,39.0,24.1,55,29.99,-9999.0,WNW,19.6,26.5,N/A,,Unknown,290,2012-10-09 10:56:00
5:56 AM,37.9,26.1,62,30.01,-9999.0,WNW,19.6,-,N/A,,Unknown,290,2012-10-09 11:56:00
6:56 AM,36.0,27.0,70,30.03,-9999.0,WNW,16.1,-,N/A,,Unknown,300,2012-10-09 12:56:00
7:56 AM,37.9,27.0,65,30.05,-9999.0,NNW,18.4,-,N/A,,Unknown,330,2012-10-09 13:56:00
8:56 AM,39.9,25.0,55,30.07,-9999.0,NNW,24.2,31.1,N/A,,Unknown,330,2012-10-09 14:56:00
9:56 AM,39.9,21.9,49,30.09,-9999.0,NNW,20.7,28.8,N/A,,Unknown,330,2012-10-09 15:56:00
10:56 AM,43.0,19.0,38,30.09,-9999.0,NW,23.0,32.2,N/A,,Unknown,320,2012-10-09 16:56:00
11:56 AM,43.0,19.0,38,30.10,-9999.0,NW,24.2,33.4,N/A,,Unknown,320,2012-10-09 17:56:00
12:56 PM,44.1,19.0,37,30.10,-9999.0,NW,18.4,26.5,N/A,,Unknown,320,2012-10-09 18:56:00
1:56 PM,45.0,19.0,36,30.10,-9999.0,NW,20.7,29.9,N/A,,Unknown,320,2012-10-09 19:56:00
2:56 PM,46.0,18.0,33,30.09,-9999.0,NNW,24.2,29.9,N/A,,Unknown,330,2012-10-09 20:56:00
3:56 PM,46.9,17.1,30,30.10,-9999.0,NW,24.2,28.8,N/A,,Unknown,310,2012-10-09 21:56:00
4:56 PM,46.0,16.0,30,30.11,-9999.0,NW,18.4,26.5,N/A,,Unknown,320,2012-10-09 22:56:00
5:56 PM,41.0,17.1,38,30.14,-9999.0,NNW,9.2,-,N/A,,Unknown,340,2012-10-09 23:56:00
6:56 PM,37.0,17.1,44,30.15,-9999.0,NNW,5.8,-,N/A,,Unknown,330,2012-10-10 00:56:00
7:56 PM,37.0,17.1,44,30.16,-9999.0,NW,4.6,-,N/A,,Unknown,310,2012-10-10 01:56:00
8:56 PM,34.0,16.0,48,30.18,-9999.0,SW,3.5,-,N/A,,Unknown,230,2012-10-10 02:56:00
9:56 PM,32.0,17.1,54,30.18,-9999.0,West,3.5,-,N/A,,Unknown,260,2012-10-10 03:56:00
10:56 PM,32.0,19.9,61,30.17,-9999.0,West,3.5,-,N/A,,Unknown,260,2012-10-10 04:56:00
11:56 PM,30.9,23.0,72,30.17,-9999.0,West,5.8,-,N/A,,Unknown,260,2012-10-10 05:56:00